Sabadell, Spain

10:39 PM CET en Diciembre 18, 2018 (GMT +0100)
Sabadell

Tiempo Historia de LELL - Diciembre, 2018

Change the Weather History Date:

Jueves, Diciembre 6, 2018

  Actual Average (LEBL) Record (LEBL)
Temperature  
Temperatura media 52 ° F -  
Temperatura máxima 59 ° F 57 ° F 65 ° F (2016)
Temperatura mínima 44 ° F 44 ° F 35 ° F (2017)
Degree Days  
Grados día de calefacción 14    
Growing Degree Days 2 (Base 50)    
Moisture  
Punto de rocío 47 ° F    
Average Humidity 89    
Maximum Humidity 100    
Minimum Humidity 67    
Precipitación  
Precipitación 0.00 pul - - ()
Presión al nivel del mar  
Presión al nivel del mar 30.28 pul    
Viento  
Velocidad del viento 2 mph ()    
Velocidad máxima del viento 9 mph    
Max Gust Speed -    
Visibilidad 5.2 Millas    
Eventos Niebla    
Averages and records for this station are not official NWS values.
T = Trace of Precipitation, MM = Missing Value Source: Averaged Metar Reports

Daily Weather History Graph

Daily Weather History Graph

Search for Another Location

Airport or City:

Astronomía

Dec. 06, 2018 Salida Puesta
Hora real 8:03 AM CET 5:21 PM CET
Crepúsculo civil 7:32 AM CET 5:52 PM CET
Crepúsculo náutico 6:57 AM CET 6:27 PM CET
Crepúsculo astronómico 6:24 AM CET 7:00 PM CET
Luna 6:54 AM CET (12/6) 5:08 PM CET (12/6)
Horas de luz 10h 20m
Horas de luz
9h 18m
Creciente menguante, 1% of the Moon is Illuminated
Dic 6
Creciente menguante
Dic 7
Nueva
Dic 15
Cuarto creciente
Dic 22
Luna llena
Dic 29
Cuarto menguante

Hourly Weather History & Observations

Hora (CET) Temp. Vientos helados Punto de rocío Humedad Presión Visibilidad Wind Dir Velocidad del viento Velocidad de ráfagas Precip Eventos Condiciones
12:00 AM 51.8 ° F - 48.2 ° F 88% 30.24 pul 6.2 mi Sin viento Sin viento - N/A   Desconocido
12:30 AM 50.0 ° F - 48.2 ° F 94% 30.24 pul 6.2 mi Variable 2.3 mph - N/A   Desconocido
1:00 AM 50.0 ° F - 50.0 ° F 100% 30.24 pul 6.2 mi Este 2.3 mph - N/A   Desconocido
1:30 AM 48.2 ° F - 46.4 ° F 93% 30.24 pul 6.2 mi Variable 2.3 mph - N/A   Desconocido
2:00 AM 48.2 ° F - 46.4 ° F 93% 30.24 pul 6.2 mi Oeste 2.3 mph - N/A   Desconocido
2:30 AM 46.4 ° F - 44.6 ° F 93% 30.24 pul 6.2 mi Variable 1.2 mph - N/A   Desconocido
3:00 AM 46.4 ° F - 46.4 ° F 100% 30.24 pul 6.2 mi Sin viento Sin viento - N/A   Desconocido
3:30 AM 44.6 ° F - 44.6 ° F 100% 30.24 pul 1.2 mi Variable 1.2 mph - N/A   Neblina
4:00 AM 48.2 ° F - 48.2 ° F 100% 30.27 pul 0.1 mi Variable 2.3 mph - N/A Niebla Niebla
4:30 AM 46.4 ° F 44.3 ° F 46.4 ° F 100% 30.27 pul 0.1 mi Oeste 4.6 mph - N/A Niebla Niebla
5:00 AM 46.4 ° F - 46.4 ° F 100% 30.27 pul 0.1 mi Variable 1.2 mph - N/A Niebla Niebla
5:30 AM 46.4 ° F - 46.4 ° F 100% 30.27 pul 3.1 mi Sin viento Sin viento - N/A Niebla Muy nublado
6:00 AM 46.4 ° F - 46.4 ° F 100% 30.27 pul 4.3 mi Variable 1.2 mph - N/A   Nublado
6:30 AM 48.2 ° F - 48.2 ° F 100% 30.27 pul 4.3 mi Sin viento Sin viento - N/A   Nublado
7:00 AM 48.2 ° F - 48.2 ° F 100% 30.27 pul 4.3 mi SSE 3.5 mph - N/A   Nublado
7:30 AM 48.2 ° F - 48.2 ° F 100% 30.27 pul 6.2 mi Variable 2.3 mph - N/A   Muy nublado
8:00 AM 46.4 ° F - 46.4 ° F 100% 30.30 pul 6.2 mi Sur 2.3 mph - N/A   Muy nublado
8:30 AM 46.4 ° F - 46.4 ° F 100% 30.30 pul 6.2 mi Sin viento Sin viento - N/A   Nubes dispersas
9:00 AM 46.4 ° F - 46.4 ° F 100% 30.30 pul 6.2 mi Sur 1.2 mph - N/A   Nubes dispersas
9:30 AM 48.2 ° F - 48.2 ° F 100% 30.33 pul 6.2 mi Variable 1.2 mph - N/A Niebla Bancos de niebla
10:00 AM 50.0 ° F - 48.2 ° F 94% 30.30 pul 6.2 mi SO 3.5 mph - N/A Niebla Bancos de niebla
10:30 AM 51.8 ° F - 48.2 ° F 88% 30.33 pul - SO 4.6 mph - N/A   Despejado
11:00 AM 53.6 ° F - 48.2 ° F 82% 30.30 pul - SSO 3.5 mph - N/A   Despejado
11:30 AM 55.4 ° F - 48.2 ° F 77% 30.33 pul - OSO 1.2 mph - N/A   Despejado
12:00 PM 57.2 ° F - 48.2 ° F 72% 30.30 pul - SSE 5.8 mph - N/A   Despejado
12:30 PM 59.0 ° F - 48.2 ° F 67% 30.30 pul - SSO 3.5 mph - N/A   Despejado
1:00 PM 59.0 ° F - 50.0 ° F 72% 30.27 pul - SO 3.5 mph - N/A   Despejado
1:30 PM 59.0 ° F - 50.0 ° F 72% 30.27 pul - Oeste 6.9 mph - N/A   Despejado
2:00 PM 59.0 ° F - 50.0 ° F 72% 30.27 pul - Oeste 5.8 mph - N/A   Despejado
2:30 PM 59.0 ° F - 50.0 ° F 72% 30.24 pul - Oeste 5.8 mph - N/A   Despejado
3:00 PM 59.0 ° F - 50.0 ° F 72% 30.24 pul - OSO 8.1 mph - N/A   Despejado
4:00 PM 59.0 ° F - 50.0 ° F 72% 30.24 pul - Oeste 9.2 mph - N/A   Despejado
4:30 PM 59.0 ° F - 50.0 ° F 72% 30.27 pul - Oeste 5.8 mph - N/A   Despejado
5:00 PM 57.2 ° F - 50.0 ° F 77% 30.27 pul - Oeste 4.6 mph - N/A   Despejado
5:30 PM 55.4 ° F - 50.0 ° F 82% 30.27 pul - SO 3.5 mph - N/A   Despejado
6:00 PM 51.8 ° F - 48.2 ° F 88% 30.27 pul 6.2 mi Oeste 3.5 mph - N/A   Desconocido
6:30 PM 50.0 ° F - 46.4 ° F 87% 30.27 pul 6.2 mi Oeste 3.5 mph - N/A   Desconocido
7:00 PM 50.0 ° F - 46.4 ° F 87% 30.30 pul 6.2 mi Variable 2.3 mph - N/A   Desconocido
7:30 PM 50.0 ° F - 48.2 ° F 94% 30.30 pul 6.2 mi Oeste 5.8 mph - N/A   Desconocido
8:00 PM 50.0 ° F - 46.4 ° F 87% 30.33 pul 6.2 mi Oeste 3.5 mph - N/A   Desconocido
8:30 PM 48.2 ° F - 46.4 ° F 93% 30.30 pul 6.2 mi Sin viento Sin viento - N/A   Desconocido
9:00 PM 48.2 ° F - 46.4 ° F 93% 30.33 pul 6.2 mi Sin viento Sin viento - N/A   Desconocido
9:30 PM 48.2 ° F - 44.6 ° F 87% 30.33 pul 6.2 mi Sin viento Sin viento - N/A   Desconocido
10:00 PM 46.4 ° F - 44.6 ° F 93% 30.33 pul 6.2 mi Sin viento Sin viento - N/A   Desconocido
10:30 PM 46.4 ° F - 44.6 ° F 93% 30.33 pul 6.2 mi Variable 2.3 mph - N/A   Desconocido
11:00 PM 44.6 ° F 42.2 ° F 44.6 ° F 100% 30.33 pul 5.6 mi Oeste 4.6 mph - N/A   Desconocido
11:30 PM 44.6 ° F - 44.6 ° F 100% 30.33 pul 5.6 mi Sin viento Sin viento - N/A   Desconocido